Weather Roundup
Issued by NWS Chicago, IL

Home | Current Version | Previous Version | Graphics & Text | Print | Product List | Glossary On
Versions: 1 2 3 4 5 6 7 8 9 10 11 12 13 14 15 16 17 18 19 20 21 22 23 24 25 26 27 28 29 30 31 32 33 34 35 36 37 38 39 40 41 42 43 44 45 46 47 48 49 50
000
NZUS59 KLOT 051812
HRRLOT

CHICAGO AREA WEATHER ROUNDUP
NATIONAL WEATHER SERVICE CHICAGO/ROMEOVILLE IL
100 PM CDT SUN JUL 05 2015

NOTE: "FAIR" INDICATES FEW OR NO CLOUDS BELOW 12,000 FEET WITH NO
SIGNIFICANT WEATHER AND/OR OBSTRUCTIONS TO VISIBILITY.

* THESE STATIONS ARE NOT UNDER NWS QUALITY CONTROL. THEY ALSO MAY NOT
  REPORT WEATHER SUCH AS PRECIPITATION OR FOG.

ILZ005-006-012>014-019>023-051900-
NORTHEAST ILLINOIS

CITY           SKY/WX    TMP DP  RH WIND       PRES   REMARKS
OHARE          MOSUNNY   80  60  50 S7        30.07F HX  81
6HR MIN TEMP:  64; 6HR MAX TEMP:  81;

MIDWAY         MOSUNNY   83  61  47 CALM      30.07F HX  83
6HR MIN TEMP:  69; 6HR MAX TEMP:  83;

AURORA         SUNNY     80  62  54 S9        30.08F HX  81
6HR MIN TEMP:  63; 6HR MAX TEMP:  81;

LANSING*       MOSUNNY   80  57  44 SW3       30.09S HX  81
JOLIET*        MOSUNNY   81  64  56 S9        30.08F HX  82
WAUKEGAN       MOSUNNY   78  62  57 SE9       30.08R HX  80
6HR MIN TEMP:  64; 6HR MAX TEMP:  79;

DUPAGE AIRPORT SUNNY     80  61  52 SE8       30.08S HX  81
6HR MIN TEMP:  63; 6HR MAX TEMP:  80;

WHEELING       MOSUNNY   81  59  47 S7        30.09S HX  81
6HR MIN TEMP:  64; 6HR MAX TEMP:  82;

KANKAKEE*      PTSUNNY   82  64  54 SE7       30.10S HX  84
MORRIS*        MOSUNNY   80  61  53 S6        30.07S HX  81
LEWIS AIRPORT* SUNNY     80  59  48 S5        30.08S HX  81
NORTHERLY IS     N/A     73  62  68 E12         N/A
$$

WIZ051-052-058>065-066-070>072-051900-
SOUTHEAST WISCONSIN

CITY           SKY/WX    TMP DP  RH WIND       PRES   REMARKS
MILWAUKEE      MOSUNNY   81  59  47 SW8       30.07S HX  81
6HR MIN TEMP:  67; 6HR MAX TEMP:  81;

KENOSHA*       MOSUNNY   82  62  50 S9        30.08S HX  83
RACINE*        SUNNY     80  60  50 S10       30.09S HX  81
BURLINGTON     SUNNY     78  62  57 S8        30.07F HX  80
WAUKESHA       MOSUNNY   77  61  57 SW9       30.09
WEST BEND      SUNNY     79  59  50 S8        30.07S HX  80
$$

INZ001>003-010>013-019-020-051900-
NORTHWEST INDIANA

CITY           SKY/WX    TMP DP  RH WIND       PRES   REMARKS
GARY*          PTSUNNY  N/A N/A N/A S7        30.09F
MICHIGAN CITY* NOT AVBL
RENSSELAER*    NOT AVBL
VALPARAISO     SUNNY     80  61  52 VRB5      30.11S HX  81
$$

LMZ740>746-051900-
SOUTHERN LAKE MICHIGAN

STATION/POSITION TIME  SKY/WX   TEMP WIND        PRES    VSBY
                                AIR  DIR/SP/G
                 (UTC)          (F)  (DEG/KT/KT) (MB)    (MI)
HARRISON CRIB    1700            71  110/ 12/ 13   N/A
BURNHAM HARBOR   1800            74  100/ 10/ 10   N/A
CALUMET HARBOR   1700            75   70/  7/  8   N/A
BURNS HARBOR     1700            71   10/  6/  7 1019.3F
MICHIGAN CITY    1700            70   10/  3/  3   N/A
$$

ABBREVIATIONS USED IN REMARKS
   TC - TEMPERATURE IN CELSIUS
  WCI - WIND CHILL INDEX
   HX - HEAT INDEX
  VSB - VISIBILITY
$$


USA.gov is the U.S. government's official web portal to all federal, state and local government web resources and services.